Date String (YYYY-MM-DD hh:mm:ss) UTC,Instrument flags,Ambient pressure (hPa),Sample flow (lpm),Bypass flow (lpm),Sample temperature (°C),Ambient temperature (°C),ASC tube jacket temperature (°C),LED temperature (°C),Box temperature (°C),Sample RH (%),Span deviation,Mass concentration (μg/m³),Mass concentration (μg/m³),Mass concentration (μg/m³)
DateTimeUTC,F1_M11,P_M11,Q1_M11,Q2_M11,T1_M11,T2_M11,T3_M11,T4_M11,T5_M11,U1_M11,ZSPAN_M11,X0_M11,X2_M11,X1_M11
2021-11-18 09:00:00,,0834.7,5.00,0.00,22.3,22.0,00.0,31.3,24.0,08.9,0000.0,0012.27,0004.20,0003.27
2021-11-18 09:01:00,,0834.7,4.99,0.00,22.3,21.8,00.0,31.3,23.9,08.9,0000.0,0012.30,0004.23,0003.27
2021-11-18 09:02:00,,0834.7,5.01,0.00,22.2,21.7,00.0,31.3,23.9,08.9,0000.0,0011.65,0004.18,0003.26
2021-11-18 09:03:00,,0834.7,5.00,0.00,22.2,21.6,00.0,31.3,23.9,08.9,0000.0,0011.57,0004.18,0003.26
2021-11-18 09:04:00,,0834.7,5.00,0.00,22.2,21.5,00.0,31.3,23.8,08.9,0000.0,0012.72,0004.18,0003.26
2021-11-18 09:05:00,,0834.7,4.99,0.00,22.1,21.4,00.0,31.3,23.8,08.9,0000.0,0013.31,0004.21,0003.26
2021-11-18 09:06:00,,0834.7,5.00,0.00,22.1,21.4,00.0,31.3,23.7,08.9,0000.0,0014.00,0004.24,0003.25
2021-11-18 09:07:00,,0834.7,5.00,0.00,22.1,21.8,00.0,31.3,23.8,08.9,0000.0,0014.14,0004.22,0003.25
2021-11-18 09:08:00,,0834.7,5.01,0.00,22.2,22.6,00.0,31.3,24.1,08.9,0000.0,0014.05,0004.17,0003.25
2021-11-18 09:09:00,,0834.7,4.99,0.00,22.4,23.0,00.0,31.3,24.3,08.8,0000.0,0014.46,0004.19,0003.25
2021-11-18 09:10:00,,0834.7,5.01,0.00,22.4,22.8,00.0,31.4,24.3,08.8,0000.0,0014.10,0004.21,0003.24
2021-11-18 09:11:00,,0834.7,4.99,0.00,22.4,22.5,00.0,31.4,24.2,08.8,0000.0,0013.61,0004.22,0003.24
2021-11-18 09:12:00,,0834.7,4.99,0.00,22.4,22.3,00.0,31.4,24.1,08.8,0000.0,0013.83,0004.17,0003.23
2021-11-18 09:13:00,,0834.7,5.00,0.00,22.3,22.1,00.0,31.3,24.0,08.8,0000.0,0013.96,0004.16,0003.22
2021-11-18 09:14:00,,0834.7,5.00,0.00,22.3,21.9,00.0,31.3,24.0,08.8,0000.0,0014.01,0004.12,0003.22
2021-11-18 09:15:00,,0834.7,5.00,0.00,22.2,21.7,00.0,31.3,23.9,08.8,0000.0,0013.02,0004.10,0003.21
2021-11-18 09:16:00,,0834.7,4.99,0.00,22.2,21.6,00.0,31.3,23.8,08.8,0000.0,0012.16,0004.07,0003.20
2021-11-18 09:17:00,,0834.7,5.01,0.00,22.2,21.5,00.0,31.3,23.8,08.8,0000.0,0011.65,0004.05,0003.20
2021-11-18 09:18:00,,0834.7,4.99,0.00,22.1,21.4,00.0,31.3,23.7,08.8,0000.0,0011.57,0004.03,0003.18
2021-11-18 09:19:00,,0834.7,5.01,0.00,22.1,21.3,00.0,31.3,23.7,08.8,0000.0,0011.57,0004.04,0003.17
2021-11-18 09:20:00,,0834.7,5.00,0.00,22.1,21.6,00.0,31.3,23.8,08.8,0000.0,0011.23,0004.02,0003.15
2021-11-18 09:21:00,,0834.7,4.99,0.00,22.2,22.3,00.0,31.3,24.0,08.8,0000.0,0011.26,0004.02,0003.14
2021-11-18 09:22:00,,0834.7,5.01,0.00,22.3,23.0,00.0,31.3,24.2,08.7,0000.0,0010.94,0004.00,0003.13
2021-11-18 09:23:00,,0834.7,5.00,0.00,22.4,23.0,00.0,31.3,24.3,08.7,0000.0,0010.69,0004.00,0003.12
2021-11-18 09:24:00,,0834.7,4.99,0.00,22.4,22.7,00.0,31.3,24.2,08.7,0000.0,0010.81,0004.04,0003.13
2021-11-18 09:25:00,,0834.7,5.00,0.00,22.4,22.4,00.0,31.3,24.2,08.6,0000.0,0010.51,0004.05,0003.13
2021-11-18 09:26:00,,0834.7,5.00,0.00,22.3,22.2,00.0,31.3,24.0,08.6,0000.0,0010.23,0004.05,0003.11
2021-11-18 09:27:00,,0834.7,5.00,0.00,22.3,22.0,00.0,31.3,24.0,08.6,0000.0,0010.38,0004.04,0003.12
2021-11-18 09:28:00,,0834.7,5.01,0.00,22.3,21.8,00.0,31.3,23.9,08.6,0000.0,0010.32,0004.02,0003.12
2021-11-18 09:29:00,,0834.6,4.99,0.00,22.2,21.7,00.0,31.3,23.9,08.6,0000.0,0010.40,0004.02,0003.12
2021-11-18 09:30:00,,0834.6,5.00,0.00,22.2,21.6,00.0,31.3,23.8,08.6,0000.0,0010.94,0004.01,0003.11
2021-11-18 09:31:00,,0834.6,5.00,0.00,22.2,21.5,00.0,31.3,23.8,08.6,0000.0,0010.78,0003.97,0003.09
2021-11-18 09:32:00,,0834.6,4.99,0.00,22.1,21.4,00.0,31.3,23.7,08.6,0000.0,0010.87,0003.95,0003.10
2021-11-18 09:33:00,,0834.6,5.01,0.00,22.1,21.3,00.0,31.3,23.7,08.7,0000.0,0011.55,0003.96,0003.11
2021-11-18 09:34:00,,0834.5,4.99,0.00,22.1,21.7,00.0,31.3,23.8,08.6,0000.0,0011.77,0004.01,0003.12
2021-11-18 09:35:00,,0834.5,5.01,0.00,22.2,22.5,00.0,31.3,24.0,08.6,0000.0,0011.51,0004.01,0003.12
2021-11-18 09:36:00,,0834.5,4.99,0.00,22.3,23.2,00.0,31.3,24.2,08.5,0000.0,0011.35,0003.97,0003.11
2021-11-18 09:37:00,,0834.5,5.00,0.00,22.4,23.4,00.0,31.4,24.4,08.5,0000.0,0010.92,0003.94,0003.11
2021-11-18 09:38:00,,0834.4,4.99,0.00,22.5,23.1,00.0,31.4,24.4,08.5,0000.0,0010.63,0004.00,0003.12
2021-11-18 09:39:00,,0834.5,5.00,0.00,22.4,22.7,00.0,31.4,24.3,08.4,0000.0,0010.94,0004.05,0003.12
2021-11-18 09:40:00,,0834.4,5.00,0.00,22.4,22.5,00.0,31.4,24.2,08.4,0000.0,0011.72,0004.07,0003.12
2021-11-18 09:41:00,,0834.4,4.99,0.00,22.4,22.2,00.0,31.4,24.1,08.3,0000.0,0011.21,0004.05,0003.10
2021-11-18 09:42:00,,0834.4,5.01,0.00,22.3,22.0,00.0,31.4,24.0,08.4,0000.0,0011.22,0004.03,0003.10
2021-11-18 09:43:00,,0834.4,5.00,0.00,22.3,21.9,00.0,31.4,24.0,08.4,0000.0,0010.86,0004.03,0003.10
2021-11-18 09:44:00,,0834.4,5.01,0.00,22.3,21.7,00.0,31.4,23.9,08.5,0000.0,0010.22,0004.04,0003.11
2021-11-18 09:45:00,,0834.4,4.99,0.00,22.2,21.6,00.0,31.3,23.8,08.6,0000.0,0009.99,0004.01,0003.09
2021-11-18 09:46:00,,0834.4,5.01,0.00,22.2,21.5,00.0,31.3,23.8,08.6,0000.0,0010.25,0004.06,0003.10
2021-11-18 09:47:00,,0834.4,5.01,0.00,22.1,21.4,00.0,31.3,23.8,08.7,0000.0,0010.36,0004.10,0003.13
2021-11-18 09:48:00,,0834.4,4.99,0.00,22.1,21.3,00.0,31.3,23.7,08.7,0000.0,0010.57,0004.15,0003.14
2021-11-18 09:49:00,,0834.4,5.01,0.00,22.1,21.4,00.0,31.3,23.7,08.7,0000.0,0010.88,0004.10,0003.13
2021-11-18 09:50:00,,0834.4,4.99,0.00,22.1,22.1,00.0,31.3,23.9,08.6,0000.0,0010.88,0004.04,0003.13
2021-11-18 09:51:00,,0834.4,5.02,0.00,22.3,22.8,00.0,31.3,24.1,08.6,0000.0,0010.04,0004.05,0003.12
2021-11-18 09:52:00,,0834.3,4.99,0.00,22.4,23.0,00.0,31.3,24.3,08.5,0000.0,0009.97,0004.13,0003.14
2021-11-18 09:53:00,,0834.3,5.00,0.00,22.4,22.7,00.0,31.4,24.2,08.5,0000.0,0010.82,0004.16,0003.15
2021-11-18 09:54:00,,0834.3,5.00,0.00,22.4,22.5,00.0,31.4,24.2,08.5,0000.0,0011.78,0004.16,0003.16
2021-11-18 09:55:00,,0834.3,5.00,0.00,22.3,22.2,00.0,31.4,24.1,08.6,0000.0,0012.57,0004.14,0003.16
2021-11-18 09:56:00,,0834.3,5.01,0.00,22.3,22.0,00.0,31.4,24.0,08.6,0000.0,0013.19,0004.16,0003.16
2021-11-18 09:57:00,,0834.3,5.00,0.00,22.3,21.9,00.0,31.3,23.9,08.6,0000.0,0014.02,0004.17,0003.17
2021-11-18 09:58:00,,0834.3,5.00,0.00,22.2,21.7,00.0,31.3,23.9,08.7,0000.0,0014.31,0004.17,0003.17
2021-11-18 09:59:00,,0834.3,4.99,0.00,22.2,21.6,00.0,31.3,23.8,08.7,0000.0,0015.09,0004.16,0003.17
